Location: Fort Worth, Tx
(32.7431°N, 97.3695°W)
Time: 13:28:56
(UTC-04:00)

Transit 2A - Pass Details

Date: 27 February 2024
Orbit: 596 x 956 km, 66.7° (Epoch: 20 April)

Event Time Altitude Azimuth Distance (km) Brightness Sun altitude
Exits shadow 07:24:33 - 289° (WNW) 2,371 7.9 -8.2°
Reaches altitude 10° 07:24:52 10° 286° (WNW) 2,310 7.8 -8.2°
Maximum altitude 07:27:42 15° 253° (WSW) 2,060 7.7 -7.6°
Drops below altitude 10° 07:30:40 10° 221° (SW) 2,434 8.3 -7.0°
Sets 07:34:21 0° 199° (SSW) 3,441 9.2 -6.2°
